• In Czech Republic
  • List of Countries
  • For 7 days
  • Water Temperature
  • Satellite Maps
  • Weather Map
  • Weather Widgets
  • user-avatar
    Login

    Hourly Weather Algiers

    Today, 20 August, Sunday

    Time Temperature Precipitation Wind Pressure Humidity
    00:00 +27°C° 0 mm 4 mps 750 mmHg 80%
    01:00 +27°C° 0 mm 4 mps 750 mmHg 81%
    02:00 +27°C° 0 mm 4 mps 750 mmHg 82%
    03:00 +26°C° 0 mm 4 mps 749 mmHg 83%
    04:00 +26°C° 0 mm 4 mps 750 mmHg 83%
    05:00 +26°C° 0 mm 4 mps 750 mmHg 83%
    06:00 +27°C° 0 mm 4 mps 750 mmHg 78%
    07:00 +28°C° 0 mm 5 mps 750 mmHg 70%
    08:00 +30°C° 0 mm 5 mps 751 mmHg 62%
    09:00 +32°C° 0 mm 6 mps 751 mmHg 53%
    10:00 +34°C° 0 mm 6 mps 751 mmHg 49%
    11:00 +35°C° 0 mm 7 mps 751 mmHg 44%
    12:00 +36°C° 0 mm 7 mps 751 mmHg 43%
    13:00 +36°C° 0 mm 7 mps 751 mmHg 43%
    14:00 +36°C° 0 mm 7 mps 751 mmHg 42%
    15:00 +36°C° 0 mm 7 mps 751 mmHg 42%
    16:00 +34°C° 0 mm 7 mps 751 mmHg 46%
    17:00 +33°C° 0 mm 7 mps 750 mmHg 51%
    18:00 +32°C° 0 mm 7 mps 750 mmHg 55%
    19:00 +30°C° 0 mm 6 mps 751 mmHg 59%
    20:00 +29°C° 0 mm 6 mps 751 mmHg 64%
    21:00 +28°C° 0 mm 5 mps 751 mmHg 68%
    22:00 +27°C° 0 mm 5 mps 751 mmHg 70%
    23:00 +27°C° 0 mm 5 mps 751 mmHg 72%

    Tomorrow, 21 August, Monday

    Time Temperature Precipitation Wind Pressure Humidity
    00:00 +26°C° 0 mm 5 mps 751 mmHg 74%
    01:00 +26°C° 0 mm 5 mps 751 mmHg 75%
    02:00 +26°C° 0 mm 5 mps 751 mmHg 76%
    03:00 +25°C° 0 mm 5 mps 751 mmHg 78%
    04:00 +25°C° 0 mm 5 mps 751 mmHg 77%
    05:00 +25°C° 0 mm 5 mps 751 mmHg 76%
    06:00 +25°C° 0 mm 4 mps 751 mmHg 75%
    07:00 +27°C° 0 mm 5 mps 751 mmHg 66%
    08:00 +29°C° 0 mm 5 mps 751 mmHg 56%
    09:00 +32°C° 0 mm 5 mps 751 mmHg 46%
    10:00 +33°C° 0 mm 6 mps 751 mmHg 42%
    11:00 +34°C° 0 mm 6 mps 751 mmHg 37%
    12:00 +35°C° 0 mm 6 mps 751 mmHg 33%
    13:00 +35°C° 0 mm 6 mps 750 mmHg 33%
    14:00 +35°C° 0 mm 6 mps 750 mmHg 32%
    15:00 +35°C° 0 mm 6 mps 750 mmHg 32%
    16:00 +34°C° 0 mm 6 mps 750 mmHg 35%
    17:00 +32°C° 0 mm 6 mps 750 mmHg 38%
    18:00 +30°C° 0 mm 6 mps 749 mmHg 42%
    19:00 +29°C° 0 mm 5 mps 750 mmHg 47%
    20:00 +28°C° 0 mm 5 mps 750 mmHg 52%
    21:00 +27°C° 0 mm 4 mps 750 mmHg 57%
    22:00 +26°C° 0 mm 4 mps 750 mmHg 59%
    23:00 +26°C° 0 mm 4 mps 750 mmHg 60%

    Day after tomorrow, 22 August, Tuesday

    Time Temperature Precipitation Wind Pressure Humidity
    00:00 +25°C° 0 mm 3 mps 750 mmHg 62%
    01:00 +25°C° 0 mm 3 mps 750 mmHg 62%
    02:00 +25°C° 0 mm 3 mps 750 mmHg 62%
    03:00 +24°C° 0 mm 3 mps 750 mmHg 62%
    04:00 +25°C° 0 mm 3 mps 750 mmHg 61%
    05:00 +25°C° 0 mm 3 mps 750 mmHg 59%
    06:00 +25°C° 0 mm 3 mps 750 mmHg 58%
    07:00 +27°C° 0 mm 3 mps 750 mmHg 50%
    08:00 +29°C° 0 mm 3 mps 750 mmHg 41%
    09:00 +31°C° 0 mm 3 mps 750 mmHg 33%
    10:00 +33°C° 0 mm 3 mps 750 mmHg 31%
    11:00 +34°C° 0 mm 3 mps 750 mmHg 29%
    12:00 +35°C° 0 mm 4 mps 750 mmHg 27%
    13:00 +35°C° 0 mm 4 mps 749 mmHg 29%
    14:00 +35°C° 0 mm 4 mps 749 mmHg 31%
    15:00 +35°C° 0 mm 4 mps 748 mmHg 33%
    16:00 +34°C° 0 mm 4 mps 748 mmHg 38%
    17:00 +33°C° 0 mm 4 mps 748 mmHg 42%
    18:00 +30°C° 0 mm 4 mps 748 mmHg 47%
    19:00 +29°C° 0 mm 3 mps 749 mmHg 51%
    20:00 +28°C° 0 mm 3 mps 749 mmHg 55%
    21:00 +27°C° 0 mm 3 mps 749 mmHg 59%
    22:00 +27°C° 0 mm 3 mps 749 mmHg 59%
    23:00 +27°C° 0 mm 2 mps 749 mmHg 59%

    23 August, Wednesday

    Time Temperature Precipitation Wind Pressure Humidity
    00:00 +27°C° 0 mm 2 mps 749 mmHg 58%
    01:00 +26°C° 0 mm 2 mps 748 mmHg 57%
    02:00 +26°C° 0 mm 2 mps 748 mmHg 56%
    03:00 +26°C° 0 mm 2 mps 748 mmHg 55%
    04:00 +26°C° 0 mm 2 mps 748 mmHg 52%
    05:00 +26°C° 0 mm 3 mps 748 mmHg 50%
    06:00 +27°C° 0 mm 3 mps 749 mmHg 47%
    07:00 +29°C° 0 mm 3 mps 749 mmHg 41%
    08:00 +31°C° 0 mm 3 mps 749 mmHg 34%
    09:00 +35°C° 0 mm 3 mps 749 mmHg 27%
    10:00 +36°C° 0 mm 4 mps 749 mmHg 25%
    11:00 +37°C° 0 mm 4 mps 749 mmHg 23%
    12:00 +38°C° 0 mm 4 mps 749 mmHg 21%
    13:00 +39°C° 0 mm 5 mps 749 mmHg 22%
    14:00 +39°C° 0 mm 5 mps 748 mmHg 23%
    15:00 +39°C° 0 mm 5 mps 748 mmHg 24%
    16:00 +37°C° 0 mm 5 mps 748 mmHg 28%
    17:00 +36°C° 0 mm 5 mps 748 mmHg 32%
    18:00 +34°C° 0 mm 5 mps 748 mmHg 36%
    19:00 +33°C° 0 mm 4 mps 748 mmHg 39%
    20:00 +32°C° 0 mm 4 mps 748 mmHg 42%
    21:00 +30°C° 0 mm 4 mps 749 mmHg 46%
    22:00 +30°C° 0 mm 4 mps 748 mmHg 44%
    23:00 +30°C° 0 mm 3 mps 748 mmHg 43%

    24 August, Thursday

    Time Temperature Precipitation Wind Pressure Humidity
    00:00 +30°C° 0 mm 3 mps 748 mmHg 41%
    01:00 +30°C° 0 mm 3 mps 748 mmHg 40%
    02:00 +30°C° 0 mm 3 mps 748 mmHg 39%
    03:00 +30°C° 0 mm 3 mps 747 mmHg 37%
    04:00 +30°C° 0 mm 3 mps 748 mmHg 37%
    05:00 +30°C° 0 mm 3 mps 748 mmHg 36%
    06:00 +30°C° 0 mm 3 mps 748 mmHg 35%
    07:00 +34°C° 0 mm 3 mps 748 mmHg 31%
    08:00 +36°C° 0 mm 3 mps 748 mmHg 27%
    09:00 +39°C° 0 mm 3 mps 749 mmHg 23%
    10:00 +39°C° 0 mm 3 mps 748 mmHg 22%
    11:00 +41°C° 0 mm 4 mps 748 mmHg 21%
    12:00 +42°C° 0 mm 4 mps 748 mmHg 20%
    13:00 +42°C° 0 mm 4 mps 747 mmHg 21%
    14:00 +42°C° 0 mm 4 mps 747 mmHg 22%
    15:00 +41°C° 0 mm 4 mps 747 mmHg 23%
    16:00 +40°C° 0 mm 4 mps 747 mmHg 26%
    17:00 +38°C° 0 mm 4 mps 747 mmHg 29%
    18:00 +37°C° 0 mm 3 mps 746 mmHg 31%
    19:00 +36°C° 0 mm 3 mps 747 mmHg 34%
    20:00 +35°C° 0 mm 2 mps 747 mmHg 36%
    21:00 +34°C° 0 mm 2 mps 747 mmHg 38%
    22:00 +34°C° 0 mm 2 mps 747 mmHg 36%
    23:00 +34°C° 0 mm 2 mps 747 mmHg 35%

    25 August, Friday

    Time Temperature Precipitation Wind Pressure Humidity
    00:00 +34°C° 0 mm 2 mps 746 mmHg 33%
    01:00 +34°C° 0 mm 2 mps 746 mmHg 33%
    02:00 +34°C° 0 mm 2 mps 746 mmHg 34%
    03:00 +32°C° 0 mm 1 mps 746 mmHg 34%
    04:00 +32°C° 0 mm 2 mps 746 mmHg 35%
    05:00 +32°C° 0 mm 2 mps 746 mmHg 36%
    06:00 +31°C° 0 mm 2 mps 746 mmHg 38%
    07:00 +34°C° 0 mm 3 mps 747 mmHg 34%
    08:00 +36°C° 0 mm 3 mps 747 mmHg 30%
    09:00 +38°C° 0 mm 3 mps 747 mmHg 26%
    10:00 +39°C° 0 mm 3 mps 747 mmHg 25%
    11:00 +40°C° 0 mm 3 mps 746 mmHg 23%
    12:00 +42°C° 0 mm 3 mps 746 mmHg 21%
    13:00 +42°C° 0 mm 3 mps 746 mmHg 23%
    14:00 +40°C° 0 mm 3 mps 746 mmHg 25%
    15:00 +39°C° 0 mm 3 mps 745 mmHg 28%
    16:00 +38°C° 0 mm 3 mps 745 mmHg 30%
    17:00 +37°C° 0 mm 2 mps 745 mmHg 33%
    18:00 +35°C° 0 mm 1 mps 745 mmHg 36%
    19:00 +35°C° 0.1 mm 1 mps 746 mmHg 37%
    20:00 +35°C° 0.1 mm 2 mps 746 mmHg 38%
    21:00 +35°C° 0.1 mm 2 mps 746 mmHg 39%
    22:00 +34°C° 0 mm 2 mps 746 mmHg 38%
    23:00 +34°C° 0 mm 2 mps 745 mmHg 37%
    Show more